Tracking 19903 objects as of 16-Oct-2019
HD Live streaming from Space Station
objects crossing your sky now

SAUDISAT 3

Track SAUDISAT 3 now!
10-day predictions
SAUDISAT 3 is classified as:


NORAD ID: 31118
Int'l Code: 2007-012B
Perigee: 659.3 km
Apogee: 682.6 km
Inclination: 97.8 °
Period: 98.0 minutes
Semi major axis: 7041 km
RCS: 0.633 m2 (medium)
Launch date: April 17, 2007
Source: Saudi Arabia (SAUD)
Launch site: TYURATAM MISSILE AND SPACE COMPLEX (TTMTR)
aabbcc
Your satellite tracking list
Your tracking list is empty




NASA's NSSDC Master Catalog

Two Line Element Set (TLE):
1 31118U 07012B   19288.90218983 -.00000028  00000-0  31088-5 0  9998
2 31118  97.8322 251.6357 0016501  69.1415 291.1557 14.69143085669917
Source of the keplerian elements: AFSPC